Location: Borotín
(49.5055°N, 14.6142°E)
Time: 11:39:18
(UTC+00:00)

ERBS - Pass Details

Date: 27 May 2022
Orbit: 359 x 376 km, 57.0° (Epoch: 26 June)

Event Time Altitude Azimuth Distance (km) Brightness Sun altitude
Exits shadow 00:53:12 25° 258° (WSW) 800 3.3 -14.8°
Maximum altitude 00:54:46 59° 330° (NNW) 436 2.4 -14.7°
Drops below altitude 10° 00:57:48 10° 51° (NE) 1,383 6.0 -14.4°
Sets 00:59:53 0° 55° (NE) 2,243 7.2 -14.3°
